GW3593 Weather Reports


Display with metric or nautical units.
time (UTC)temp
F
wind
direction
speed
MPH
gust
MPH
rain 1hr
in
rain 24hr
in
rain mn
in
humidity
%
barometer
mb
20260510190542 78 128 0.0 0.0 0.00 0.00 0.00 63 1019.0
20260510190040 79 128 0.0 0.0 0.00 0.00 0.00 61 1019.4
20260510185536 80 128 0.0 0.0 0.00 0.00 0.00 55 1019.1
20260510185033 81 128 0.0 0.0 0.00 0.00 0.00 50 1019.3
20260510184531 81 129 0.0 0.0 0.00 0.00 0.00 49 1019.2
20260510184026 81 60 0.0 0.0 0.00 0.00 0.00 51 1019.3
20260510183522 83 53 1.0 3.0 0.00 0.00 0.00 43 1019.2
20260510183017 83 166 1.0 1.0 0.00 0.00 0.00 40 1019.4
20260510182515 83 151 1.0 2.0 0.00 0.00 0.00 40 1019.2
20260510182014 83 63 1.0 5.0 0.00 0.00 0.00 44 1019.4
20260510181513 83 206 2.0 2.0 0.00 0.00 0.00 43 1019.3
20260510181008 83 83 0.0 0.0 0.00 0.00 0.00 43 1019.4
20260510180506 82 55 1.0 2.0 0.00 0.00 0.00 45 1019.6
20260510180003 82 111 1.0 1.0 0.00 0.00 0.00 44 1019.4
20260510175458 83 186 0.0 1.0 0.00 0.00 0.00 42 1019.9
20260510174954 84 245 1.0 1.0 0.00 0.00 0.00 45 1019.8
20260510174453 84 132 0.0 1.0 0.00 0.00 0.00 45 1019.6
20260510173949 84 337 0.0 0.0 0.00 0.00 0.00 44 1019.8
20260510173445 82 88 0.0 1.0 0.00 0.00 0.00 46 1019.7
20260510172941 84 120 0.0 1.0 0.00 0.00 0.00 45 1019.9
20260510172437 83 214 0.0 3.0 0.00 0.00 0.00 47 1019.9
20260510171934 83 339 0.0 2.0 0.00 0.00 0.00 49 1019.8
20260510171431 82 64 1.0 1.0 0.00 0.00 0.00 49 1019.9
20260510170927 81 146 0.0 3.0 0.00 0.00 0.00 49 1020.0
20260510170424 81 195 1.0 3.0 0.00 0.00 0.00 46 1020.1
20260510165920 82 101 0.0 1.0 0.00 0.00 0.00 49 1020.0
20260510165416 83 111 1.0 5.0 0.00 0.00 0.00 44 1020.1
20260510164913 83 126 0.0 0.0 0.00 0.00 0.00 43 1020.0
20260510164411 83 246 1.0 1.0 0.00 0.00 0.00 48 1020.1
20260510163910 82 137 0.0 1.0 0.00 0.00 0.00 51 1020.2
20260510163407 80 126 0.0 1.0 0.00 0.00 0.00 56 1020.2
20260510162901 80 58 0.0 2.0 0.00 0.00 0.00 50 1019.9
20260510162359 81 84 1.0 1.0 0.00 0.00 0.00 53 1019.9
20260510161854 80 93 1.0 1.0 0.00 0.00 0.00 53 1019.8
20260510161350 80 136 0.0 2.0 0.00 0.00 0.00 53 1020.0
20260510160848 80 99 2.0 2.0 0.00 0.00 0.00 60 1019.8
20260510160345 78 153 0.0 1.0 0.00 0.00 0.00 63 1019.8
20260510155838 79 252 1.0 1.0 0.00 0.00 0.00 60 1020.1
20260510155336 78 78 0.0 1.0 0.00 0.00 0.00 63 1019.8
20260510154831 79 336 2.0 3.0 0.00 0.00 0.00 61 1020.1
20260510154327 78 152 0.0 1.0 0.00 0.00 0.00 63 1019.9
20260510153822 78 91 1.0 1.0 0.00 0.00 0.00 67 1020.0
20260510153318 77 96 0.0 1.0 0.00 0.00 0.00 65 1020.2
20260510152815 76 292 1.0 2.0 0.00 0.00 0.00 68 1020.0
20260510152312 76 261 2.0 2.0 0.00 0.00 0.00 69 1020.0
20260510151808 76 305 1.0 3.0 0.00 0.00 0.00 72 1020.1
20260510151306 75 213 2.0 2.0 0.00 0.00 0.00 72 1020.1
20260510150801 74 125 1.0 2.0 0.00 0.00 0.00 78 1020.1
20260510150257 73 116 0.0 5.0 0.00 0.00 0.00 79 1019.7
20260510145754 73 97 0.0 1.0 0.00 0.00 0.00 80 1019.8
20260510145251 73 5 1.0 2.0 0.00 0.00 0.00 82 1020.1
20260510144747 72 69 1.0 2.0 0.00 0.00 0.00 82 1020.2
20260510144244 72 119 0.0 1.0 0.00 0.00 0.00 84 1020.3
20260510143743 71 123 0.0 1.0 0.00 0.00 0.00 85 1020.2
20260510143240 70 88 1.0 2.0 0.00 0.00 0.00 86 1019.9
20260510142737 70 164 0.0 1.0 0.00 0.00 0.00 88 1019.9
20260510142234 69 123 0.0 2.0 0.00 0.00 0.00 88 1019.9
20260510141730 69 133 0.0 1.0 0.00 0.00 0.00 89 1020.1
20260510141229 68 116 0.0 0.0 0.00 0.00 0.00 89 1019.9
20260510140726 68 123 0.0 0.0 0.00 0.00 0.00 90 1019.9
20260510140226 68 93 0.0 0.0 0.00 0.00 0.00 91 1020.0
20260510135720 67 135 1.0 1.0 0.00 0.00 0.00 91 1020.0
20260510135216 66 116 0.0 0.0 0.00 0.00 0.00 92 1020.0
20260510134714 65 101 0.0 1.0 0.00 0.00 0.00 93 1020.0
20260510134211 64 125 0.0 0.0 0.00 0.00 0.00 93 1020.0
20260510133706 62 124 0.0 0.0 0.00 0.00 0.00 92 1019.9
20260510133202 62 123 0.0 0.0 0.00 0.00 0.00 93 1019.9
20260510132658 61 128 0.0 0.0 0.00 0.00 0.00 92 1020.0
20260510132156 60 123 0.0 0.0 0.00 0.00 0.00 92 1020.1
20260510131653 60 113 0.0 0.0 0.00 0.00 0.00 91 1020.1
20260510131151 60 115 0.0 0.0 0.00 0.00 0.00 89 1020.0
20260510130647 59 115 0.0 0.0 0.00 0.00 0.00 89 1019.9
20260510130144 58 114 0.0 0.0 0.00 0.00 0.00 90 1019.9
20260510125640 59 115 0.0 0.0 0.00 0.00 0.00 89 1020.0
20260510125137 58 119 0.0 0.0 0.00 0.00 0.00 88 1019.9
20260510124634 60 116 0.0 0.0 0.00 0.00 0.00 85 1019.7
20260510124131 59 112 0.0 0.0 0.00 0.00 0.00 87 1019.9
20260510123626 57 113 0.0 0.0 0.00 0.00 0.00 90 1019.8
20260510123122 56 113 0.0 0.0 0.00 0.00 0.00 92 1019.7
20260510122618 56 114 0.0 0.0 0.00 0.00 0.00 94 1019.6
20260510122114 55 113 0.0 0.0 0.00 0.00 0.00 96 1019.6
20260510121612 55 118 0.0 0.0 0.00 0.00 0.00 97 1019.5
20260510121109 54 113 0.0 0.0 0.00 0.00 0.00 99 1019.5
20260510120607 53 114 0.0 0.0 0.00 0.00 0.00 99 1019.7
20260510115559 51 122 0.0 0.0 0.00 0.00 0.00 99 1019.3
20260510115056 50 123 0.0 0.0 0.00 0.00 0.00 99 1019.3
20260510114552 50 122 0.0 0.0 0.00 0.00 0.00 99 1019.1
20260510114048 49 125 0.0 0.0 0.00 0.00 0.00 99 1019.1
20260510113543 49 125 0.0 0.0 0.00 0.00 0.00 99 1018.9
20260510113041 49 125 0.0 0.0 0.00 0.00 0.00 99 1018.9
20260510112537 49 129 0.0 0.0 0.00 0.00 0.00 99 1018.7
20260510112034 49 130 0.0 0.0 0.00 0.00 0.00 99 1018.6
20260510111531 49 126 0.0 0.0 0.00 0.00 0.00 99 1018.6
20260510111026 49 126 0.0 0.0 0.00 0.00 0.00 99 1018.6
20260510110523 49 126 0.0 0.0 0.00 0.00 0.00 99 1018.4
20260510110019 49 128 0.0 0.0 0.00 0.00 0.00 99 1018.5
20260510105514 49 118 0.0 0.0 0.00 0.00 0.00 99 1018.3
20260510105009 48 118 0.0 0.0 0.00 0.00 0.00 99 1018.2
20260510104507 48 127 0.0 0.0 0.00 0.00 0.00 99 1018.5
20260510104003 48 126 0.0 0.0 0.00 0.00 0.00 99 1018.2
20260510103500 49 128 0.0 0.0 0.00 0.00 0.00 99 1018.3
20260510102955 49 130 0.0 0.0 0.00 0.00 0.00 99 1018.1
20260510102452 49 126 0.0 0.0 0.00 0.00 0.00 99 1017.9
20260510101948 49 128 0.0 0.0 0.00 0.00 0.00 99 1017.9
20260510101446 49 123 0.0 0.0 0.00 0.00 0.00 99 1018.1
20260510100945 49 125 0.0 0.0 0.00 0.00 0.00 99 1018.0
20260510100440 49 126 0.0 0.0 0.00 0.00 0.00 99 1017.9
20260510095937 49 126 0.0 0.0 0.00 0.00 0.00 99 1017.7
20260510095432 49 130 0.0 0.0 0.00 0.00 0.00 99 1017.9
20260510094932 49 134 0.0 0.0 0.00 0.00 0.00 99 1017.9
20260510094426 49 134 0.0 0.0 0.00 0.00 0.00 99 1017.7
20260510093923 49 130 0.0 0.0 0.00 0.00 0.00 99 1017.5
20260510093418 49 124 0.0 0.0 0.00 0.00 0.00 99 1017.5
20260510092915 49 114 0.0 0.0 0.00 0.00 0.00 99 1017.5
20260510092413 49 123 0.0 0.0 0.00 0.00 0.00 99 1017.4
20260510091912 49 129 0.0 0.0 0.00 0.00 0.00 99 1017.5
20260510091410 49 130 0.0 0.0 0.00 0.00 0.00 99 1017.6
20260510090906 49 125 0.0 0.0 0.00 0.00 0.00 99 1017.5
20260510090403 49 120 0.0 0.0 0.00 0.00 0.00 99 1017.5
20260510085859 49 124 0.0 0.0 0.00 0.00 0.00 99 1017.4
20260510085354 49 125 0.0 0.0 0.00 0.00 0.00 99 1017.5
20260510084849 49 128 0.0 0.0 0.00 0.00 0.00 99 1017.4
20260510084347 49 123 0.0 0.0 0.00 0.00 0.00 99 1017.3
20260510083844 49 126 0.0 0.0 0.00 0.00 0.00 99 1017.3
20260510083340 49 122 0.0 0.0 0.00 0.00 0.00 99 1017.3
20260510082836 49 116 0.0 0.0 0.00 0.00 0.00 99 1017.2
20260510082333 49 122 0.0 0.0 0.00 0.00 0.00 99 1017.6
20260510081832 49 125 0.0 0.0 0.00 0.00 0.00 99 1017.4
20260510081328 49 126 0.0 0.0 0.00 0.00 0.00 99 1017.6
20260510080824 49 126 0.0 0.0 0.00 0.00 0.00 99 1017.5
20260510080319 49 125 0.0 0.0 0.00 0.00 0.00 99 1017.4
20260510075817 49 125 0.0 0.0 0.00 0.00 0.00 99 1017.4
20260510075314 50 124 0.0 0.0 0.00 0.00 0.00 99 1017.3
20260510074810 50 125 0.0 0.0 0.00 0.00 0.00 99 1017.1
20260510074308 50 125 0.0 0.0 0.00 0.00 0.00 99 1017.3
20260510073803 50 123 0.0 0.0 0.00 0.00 0.00 99 1016.9
20260510073259 50 123 0.0 0.0 0.00 0.00 0.00 99 1017.0
20260510072755 50 126 0.0 0.0 0.00 0.00 0.00 99 1016.8
20260510072252 50 123 0.0 0.0 0.00 0.00 0.00 99 1016.9
20260510071748 50 119 0.0 0.0 0.00 0.00 0.00 99 1016.8
20260510071245 50 123 0.0 0.0 0.00 0.00 0.00 99 1016.9
20260510070744 50 128 0.0 0.0 0.00 0.00 0.00 99 1016.8
20260510070241 50 130 0.0 0.0 0.00 0.00 0.00 99 1017.0
20260510065740 50 131 0.0 0.0 0.00 0.00 0.00 99 1017.0
20260510065238 50 126 0.0 0.0 0.00 0.00 0.00 99 1017.0
20260510064734 51 124 0.0 0.0 0.00 0.00 0.00 99 1017.2
20260510064232 51 124 0.0 0.0 0.00 0.00 0.00 99 1016.8
20260510063728 51 116 0.0 0.0 0.00 0.00 0.00 99 1017.0
20260510063224 51 122 0.0 0.0 0.00 0.00 0.00 99 1017.1
20260510062721 51 116 0.0 0.0 0.00 0.00 0.00 99 1016.8
20260510062217 51 119 0.0 0.0 0.00 0.00 0.00 99 1016.9
20260510061712 51 125 0.0 0.0 0.00 0.00 0.00 99 1016.9
20260510061210 51 123 0.0 0.0 0.00 0.00 0.00 99 1016.9
20260510060706 51 126 0.0 0.0 0.00 0.00 0.00 99 1016.9
20260510060203 51 129 0.0 0.0 0.00 0.00 0.00 99 1016.9
20260510055659 51 129 0.0 0.0 0.00 0.00 0.00 99 1017.4
20260510055157 51 126 0.0 0.0 0.00 0.00 0.00 99 1017.1
20260510054653 51 125 0.0 0.0 0.00 0.00 0.00 99 1017.1
20260510054149 51 130 0.0 0.0 0.00 0.00 0.00 99 1017.1
20260510053648 52 147 0.0 0.0 0.00 0.00 0.00 99 1017.0
20260510053145 52 106 0.0 0.0 0.00 0.00 0.00 99 1017.0
20260510052640 51 129 0.0 0.0 0.00 0.00 0.00 99 1017.0
20260510052137 52 128 0.0 0.0 0.00 0.00 0.00 99 1016.7
20260510051633 52 123 0.0 0.0 0.00 0.00 0.00 99 1016.8
20260510051129 52 130 0.0 0.0 0.00 0.00 0.00 99 1016.7
20260510050626 52 128 0.0 0.0 0.00 0.00 0.00 99 1016.6
20260510050124 52 125 0.0 0.0 0.00 0.00 0.00 99 1016.8
20260510045621 52 140 0.0 0.0 0.00 0.00 0.00 99 1016.9
20260510045117 52 102 0.0 0.0 0.00 0.00 0.00 99 1016.8
20260510044613 53 132 0.0 0.0 0.00 0.00 0.00 98 1016.8
20260510044111 53 124 0.0 0.0 0.00 0.00 0.00 98 1016.6
20260510043606 53 118 0.0 0.0 0.00 0.00 0.00 99 1016.6
20260510043103 53 112 0.0 0.0 0.00 0.00 0.00 98 1016.7
20260510042601 53 122 0.0 0.0 0.00 0.00 0.00 98 1016.9
20260510042056 53 129 0.0 0.0 0.00 0.00 0.00 98 1016.6
20260510041554 53 131 0.0 0.0 0.00 0.00 0.00 98 1016.8
20260510041051 53 129 0.0 0.0 0.00 0.00 0.00 98 1016.8
20260510040548 54 116 0.0 0.0 0.00 0.00 0.00 98 1016.9
20260510040044 54 125 0.0 0.0 0.00 0.00 0.00 98 1016.8
20260510035540 54 125 0.0 0.0 0.00 0.00 0.00 98 1017.0
20260510035040 54 125 0.0 0.0 0.00 0.00 0.00 98 1016.9
20260510034538 55 120 0.0 0.0 0.00 0.00 0.00 98 1016.7
20260510034035 55 122 0.0 0.0 0.00 0.00 0.00 98 1016.6
20260510033530 55 122 0.0 0.0 0.00 0.00 0.00 98 1016.8
20260510033029 55 123 0.0 0.0 0.00 0.00 0.00 97 1016.9
20260510032525 55 125 0.0 0.0 0.00 0.00 0.00 97 1016.9
20260510032020 55 126 0.0 0.0 0.00 0.00 0.00 97 1017.2
20260510031516 56 118 0.0 0.0 0.00 0.00 0.00 97 1017.0
20260510031012 56 111 0.0 0.0 0.00 0.00 0.00 97 1016.7
20260510030508 56 125 0.0 0.0 0.00 0.00 0.00 97 1016.7
20260510030005 56 125 0.0 0.0 0.00 0.00 0.00 97 1016.5
20260510025502 56 125 0.0 0.0 0.00 0.00 0.00 96 1016.8
20260510025000 57 139 0.0 0.0 0.00 0.00 0.00 96 1016.6
20260510024456 57 125 0.0 0.0 0.00 0.00 0.00 96 1016.4
20260510023952 57 123 0.0 0.0 0.00 0.00 0.00 96 1016.5
20260510023448 57 122 0.0 0.0 0.00 0.00 0.00 95 1016.3
20260510022945 57 122 0.0 0.0 0.00 0.00 0.00 95 1016.3
20260510022444 57 124 0.0 0.0 0.00 0.00 0.00 95 1016.4
20260510021943 58 139 0.0 0.0 0.00 0.00 0.00 95 1016.1
20260510021442 58 125 0.0 0.0 0.00 0.00 0.00 94 1016.2
20260510020939 58 125 0.0 0.0 0.00 0.00 0.00 94 1015.9
20260510020438 59 123 0.0 0.0 0.00 0.00 0.00 94 1015.7
20260510015934 59 125 0.0 0.0 0.00 0.00 0.00 93 1015.8
20260510015431 59 124 0.0 0.0 0.00 0.00 0.00 93 1015.6
20260510014925 60 122 0.0 0.0 0.00 0.00 0.00 92 1015.5
20260510014424 60 116 0.0 0.0 0.00 0.00 0.00 92 1015.7
20260510013920 60 118 0.0 0.0 0.00 0.00 0.00 91 1015.4
20260510013415 60 123 0.0 0.0 0.00 0.00 0.00 91 1015.1
20260510012910 61 125 0.0 0.0 0.00 0.00 0.00 91 1015.0
20260510012405 61 122 0.0 0.0 0.00 0.00 0.00 90 1014.9
20260510011900 62 122 0.0 0.0 0.00 0.00 0.00 89 1014.9
20260510011355 62 125 0.0 0.0 0.00 0.00 0.00 88 1014.9
20260510010852 63 116 0.0 0.0 0.00 0.00 0.00 87 1015.1
20260510010350 63 116 0.0 0.0 0.00 0.00 0.00 86 1014.9
20260510005846 64 110 0.0 0.0 0.00 0.00 0.00 85 1014.9
20260510005342 64 113 0.0 0.0 0.00 0.00 0.00 85 1014.6
20260510004840 65 123 0.0 0.0 0.00 0.00 0.00 83 1014.7
20260510004337 66 121 0.0 0.0 0.00 0.00 0.00 82 1014.7
20260510003835 66 122 0.0 0.0 0.00 0.00 0.00 81 1014.6
20260510003332 67 123 0.0 0.0 0.00 0.00 0.00 79 1014.5
20260510002830 68 124 0.0 0.0 0.00 0.00 0.00 77 1014.3
20260510002328 68 124 0.0 0.0 0.00 0.00 0.00 76 1014.3
20260510001824 69 125 0.0 0.0 0.00 0.00 0.00 75 1014.2
20260510001323 69 126 0.0 0.0 0.00 0.00 0.00 73 1014.3
20260510000818 70 138 0.0 0.0 0.00 0.00 0.00 73 1014.4
20260510000318 71 138 0.0 0.0 0.00 0.00 0.00 70 1014.3
20260509235813 71 138 0.0 0.0 0.00 0.00 0.00 72 1014.3
20260509235309 71 138 0.0 0.0 0.00 0.00 0.00 68 1014.2
20260509234805 72 138 0.0 0.0 0.00 0.00 0.00 68 1014.1
20260509234302 73 138 0.0 0.0 0.00 0.00 0.00 71 1014.2
20260509233800 73 138 0.0 0.0 0.00 0.00 0.00 66 1014.3
20260509233257 73 145 0.0 1.0 0.00 0.00 0.00 63 1014.3
20260509232753 74 138 0.0 1.0 0.00 0.00 0.00 64 1014.1
20260509232251 75 138 0.0 0.0 0.00 0.00 0.00 64 1014.1
20260509231747 75 158 1.0 1.0 0.00 0.00 0.00 63 1014.2
20260509231244 75 166 0.0 0.0 0.00 0.00 0.00 64 1014.2
20260509230742 75 122 0.0 1.0 0.00 0.00 0.00 62 1014.1
20260509230238 77 142 0.0 1.0 0.00 0.00 0.00 59 1014.0
20260509225733 77 159 1.0 1.0 0.00 0.00 0.00 54 1013.9
20260509225230 76 137 0.0 0.0 0.00 0.00 0.00 56 1013.9
20260509224725 77 125 0.0 0.0 0.00 0.00 0.00 58 1014.0
20260509224223 77 109 0.0 0.0 0.00 0.00 0.00 52 1013.8
20260509223720 77 99 0.0 1.0 0.00 0.00 0.00 52 1013.6
20260509223217 77 70 1.0 1.0 0.00 0.00 0.00 49 1013.7
20260509222714 78 132 0.0 2.0 0.00 0.00 0.00 48 1013.8
20260509222209 79 127 0.0 1.0 0.00 0.00 0.00 48 1013.8
20260509221705 81 167 0.0 2.0 0.00 0.00 0.00 51 1013.6
20260509221201 81 148 0.0 1.0 0.00 0.00 0.00 50 1013.7
20260509220657 80 126 0.0 1.0 0.00 0.00 0.00 46 1013.6
20260509220154 81 138 0.0 0.0 0.00 0.00 0.00 45 1013.6
20260509215649 80 132 0.0 0.0 0.00 0.00 0.00 50 1013.7
20260509215147 82 102 0.0 2.0 0.00 0.00 0.00 46 1013.5
20260509214643 81 118 0.0 1.0 0.00 0.00 0.00 47 1013.8
20260509214140 81 139 0.0 1.0 0.00 0.00 0.00 47 1013.8
20260509213637 81 151 0.0 0.0 0.00 0.00 0.00 50 1013.8
20260509213133 80 96 0.0 2.0 0.00 0.00 0.00 47 1013.5
20260509212631 81 142 1.0 3.0 0.00 0.00 0.00 47 1013.7
20260509212127 80 152 0.0 0.0 0.00 0.00 0.00 53 1013.9
20260509211623 81 136 0.0 1.0 0.00 0.00 0.00 50 1013.8
20260509211120 80 135 1.0 1.0 0.00 0.00 0.00 46 1013.4
20260509210617 81 164 1.0 1.0 0.00 0.00 0.00 46 1013.6
20260509210114 80 108 1.0 1.0 0.00 0.00 0.00 47 1013.9
20260509205608 80 162 1.0 1.0 0.00 0.00 0.00 49 1013.7
20260509205103 80 116 1.0 1.0 0.00 0.00 0.00 51 1013.7
20260509204559 78 87 0.0 1.0 0.00 0.00 0.00 52 1013.8
20260509204056 78 96 1.0 2.0 0.00 0.00 0.00 51 1013.6
20260509203552 78 150 0.0 0.0 0.00 0.00 0.00 52 1013.8
20260509203051 78 181 1.0 3.0 0.00 0.00 0.00 53 1014.0
20260509202550 79 109 2.0 2.0 0.00 0.00 0.00 50 1013.9
20260509202046 80 118 0.0 1.0 0.00 0.00 0.00 53 1014.2
20260509201541 81 65 1.0 1.0 0.00 0.00 0.00 49 1013.9
20260509201040 79 223 1.0 1.0 0.00 0.00 0.00 51 1014.1
20260509200539 78 289 3.0 3.0 0.00 0.00 0.00 53 1013.8
20260509200036 77 108 1.0 1.0 0.00 0.00 0.00 54 1014.0
20260509195532 78 127 1.0 1.0 0.00 0.00 0.00 54 1013.7
20260509195032 78 141 0.0 1.0 0.00 0.00 0.00 53 1013.9
20260509194526 78 92 0.0 1.0 0.00 0.00 0.00 54 1014.0
20260509194024 77 101 0.0 1.0 0.00 0.00 0.00 54 1014.0
20260509193524 78 146 1.0 2.0 0.00 0.00 0.00 52 1014.1
20260509193022 80 19 1.0 2.0 0.00 0.00 0.00 53 1014.0
20260509192518 78 0 1.0 2.0 0.00 0.00 0.00 56 1014.0
20260509192013 77 148 0.0 0.0 0.00 0.00 0.00 60 1014.1
20260509191508 77 115 0.0 1.0 0.00 0.00 0.00 57 1014.2
20260509191004 78 75 2.0 2.0 0.00 0.00 0.00 56 1014.2